Rochester, NH

2:55 PM EDT on June 23, 2017 (GMT -0400)
Skyhaven

Weather History for KDAW - May, 2014

Change the Weather History Date:

Saturday, May 10, 2014

  Actual Average (KPSM) Record (KPSM)
Temperature  
Mean Temperature 60 °F -  
Max Temperature 75 °F 61 °F 92 °F (1979)
Min Temperature 46 °F 42 °F 27 °F (1986)
Degree Days  
Heating Degree Days 4    
Growing Degree Days 10 (Base 50)    
Moisture  
Dew Point 52 °F    
Average Humidity 83    
Maximum Humidity 100    
Minimum Humidity 51    
Precipitation  
Precipitation 0.21 in - - ()
Sea Level Pressure  
Sea Level Pressure 29.86 in    
Wind  
Wind Speed 2 mph (NW)    
Max Wind Speed 7 mph    
Max Gust Speed -    
Visibility 6 miles    
Events Fog , Rain    
Averages and records for this station are not official NWS values.
T = Trace of Precipitation, MM = Missing Value Source: NWS Daily Summary

Daily Weather History Graph

Daily Weather History Graph

Search for Another Location

Airport or City:

Trip Planner

Search our weather history database for the weather conditions in past years. The results will help you decide how hot, cold, wet, or windy it might be!

Date:

Astronomy

May. 10, 2014 Rise Set
Actual Time 5:25 AM EDT 7:55 PM EDT
Civil Twilight 4:53 AM EDT 8:27 PM EDT
Nautical Twilight 4:12 AM EDT 9:08 PM EDT
Astronomical Twilight 3:27 AM EDT 9:54 PM EDT
Moon 3:41 PM EDT (5/10) 3:04 AM EDT (5/10)
Length of Visible Light 15h 34m
Length of Day
14h 30m
Waxing Gibbous, 82% of the Moon is Illuminated
May 10
Waxing Gibbous
May 14
Full
May 21
Last Quarter
May 28
New
Jun 5
First Quarter

Hourly Weather History & Observations

Time (EDT) Temp. Dew Point Humidity Pressure Visibility Wind Dir Wind Speed Gust Speed Precip Events Conditions
12:04 AM 46.9 °F 45.0 °F 93% 30.08 in 6.0 mi Calm Calm - N/A   Overcast
12:16 AM 46.9 °F 46.0 °F 97% 30.08 in 5.0 mi Calm Calm - N/A   Overcast
12:51 AM 46.9 °F 45.0 °F 93% 30.06 in 7.0 mi Calm Calm - N/A   Overcast
1:07 AM 46.9 °F 46.0 °F 97% 30.07 in 7.0 mi Calm Calm - N/A   Overcast
1:32 AM 46.9 °F 46.0 °F 97% 30.03 in 3.0 mi Calm Calm - N/A   Overcast
1:51 AM 48.0 °F 46.0 °F 93% 30.02 in 6.0 mi Calm Calm - N/A   Overcast
2:51 AM 48.0 °F 46.0 °F 93% 29.99 in 6.0 mi Calm Calm - N/A   Overcast
3:51 AM 48.0 °F 46.0 °F 93% 29.96 in 5.0 mi Calm Calm - N/A   Overcast
4:33 AM 48.0 °F 46.0 °F 93% 29.94 in 2.0 mi NNW 4.6 mph - N/A   Overcast
4:41 AM 48.0 °F 46.0 °F 93% 29.93 in 1.5 mi NNW 3.5 mph - N/A   Overcast
4:51 AM 48.0 °F 46.9 °F 96% 29.93 in 1.0 mi Calm Calm - N/A   Overcast
5:01 AM 48.0 °F 46.0 °F 93% 29.93 in 0.8 mi NW 4.6 mph - N/A   Overcast
5:51 AM 48.9 °F 46.9 °F 93% 29.91 in 0.5 mi NW 4.6 mph - N/A Fog Fog
6:16 AM 48.9 °F 46.9 °F 93% 29.91 in 0.2 mi NW 4.6 mph - N/A Fog Fog
6:51 AM 48.9 °F 48.0 °F 97% 29.89 in 0.5 mi NNW 3.5 mph - N/A Fog Fog
7:51 AM 50.0 °F 48.9 °F 96% 29.88 in 0.5 mi WNW 3.5 mph - N/A Fog Fog
8:51 AM 51.1 °F 48.9 °F 92% 29.85 in 1.0 mi Calm Calm - 0.07 in Rain Rain
9:13 AM 51.1 °F 50.0 °F 96% 29.85 in 2.0 mi NW 4.6 mph - 0.04 in Rain Rain
9:43 AM 52.0 °F 51.1 °F 97% 29.83 in 2.0 mi NW 3.5 mph - 0.14 in Rain Light Rain
9:46 AM 51.8 °F 51.8 °F 100% 29.83 in 3.0 mi Calm Calm - 0.14 in Rain Light Rain
9:51 AM 52.0 °F 51.1 °F 97% 29.83 in 5.0 mi Calm Calm - 0.14 in Rain Light Rain
11:51 AM 60.1 °F 57.9 °F 93% 29.81 in 5.0 mi SW 5.8 mph - N/A   Overcast
12:23 PM 66.0 °F 61.0 °F 84% 29.80 in 10.0 mi Variable 4.6 mph - N/A   Mostly Cloudy
12:37 PM 66.9 °F 61.0 °F 81% 29.79 in 10.0 mi Variable 3.5 mph - N/A   Overcast
12:51 PM 68.0 °F 61.0 °F 78% 29.78 in 10.0 mi Variable 6.9 mph - N/A   Mostly Cloudy
1:23 PM 71.1 °F 62.1 °F 73% 29.78 in 10.0 mi Calm Calm - N/A   Scattered Clouds
1:51 PM 72.0 °F 61.0 °F 68% 29.76 in 10.0 mi Variable 5.8 mph - N/A   Partly Cloudy
2:51 PM 73.9 °F 59.0 °F 59% 29.75 in 10.0 mi Variable 3.5 mph - N/A   Clear
3:51 PM 73.9 °F 60.1 °F 62% 29.73 in 10.0 mi South 6.9 mph - N/A   Clear
4:51 PM 75.9 °F 60.1 °F 58% 29.71 in 10.0 mi Variable 3.5 mph - N/A   Clear
5:51 PM 75.0 °F 57.0 °F 53% 29.70 in 10.0 mi Variable 3.5 mph - N/A   Clear
6:51 PM 75.0 °F 55.9 °F 51% 29.70 in 10.0 mi Variable 3.5 mph - N/A   Clear
7:51 PM 73.0 °F 55.9 °F 55% 29.70 in 10.0 mi Variable 5.8 mph - N/A   Scattered Clouds
8:51 PM 71.1 °F 55.9 °F 59% 29.73 in 10.0 mi Variable 3.5 mph - N/A   Scattered Clouds
9:51 PM 68.0 °F 55.9 °F 65% 29.74 in 10.0 mi Variable 3.5 mph - N/A   Clear
10:51 PM 66.0 °F 57.0 °F 73% 29.74 in 10.0 mi Variable 3.5 mph - N/A   Clear
11:51 PM 64.9 °F 57.0 °F 75% 29.74 in 10.0 mi Variable 3.5 mph - N/A   Clear